COSMOS 2251 DEB, 34962

Orbit data source: Space-Track

COSMOS 2251 DEB, 34962 is space debris in LEO originally from a launch on Wed, 16 Jun 1993 UTC launched from the Plesetsk Missile And Space Complex (PKMTR). The debris from Iridium 33, an American commercial communications satellite, has been tracked extensively since its accidental collision with the defunct Russian satellite Cosmos 2251 in 2009. This event, occurring at high speed in low Earth orbit (LEO), generated thousands of pieces of space debris, significantly increasing the risk of further collisions. The Iridium 33 debris cloud has impacted space traffic management and orbital debris mitigation strategies, making it a subject of ongoing study in space situational awareness.

Loading next visibility...
Identifier
34962, 1993-036AER
Orbit
LEO
Country
Flag of CISCIS
Related business
Manufacturer
Unknown
Mission
Spacecraft
Bus & Motor
Unknown
Mass
Unknown
Launch date (UTC)
1993-06-16 (33 years ago)
Launch vehicle
Unknown
Launch site
Plesetsk Missile And Space Complex (PKMTR)
Object type
Payload
Rocket body
Debris
Shape & HBR
Unknown shape, 0.1 m
Radar Cross Section
Small (<0.1 m²)

Expand to show TLE details & history
Last TLE update: 1 day ago

TLE from 1 day ago
0 COSMOS 2251 DEB
1 34962U 93036AER 26263.31986790  .00000770  00000-0  21748-3 0  9996
2 34962  74.0308  26.9816 0017530  71.4996 288.8066 14.47288316916516
Epoch: 2026-09-20T07:40Z
TLE epoch observation values (Epoch: 2026-09-20T07:40:36.586Z)
Latitude
-0.00002°
Longitude
-87.3866°
Altitude
733.143 km
Speed
7.491 km/s
True Right ascension
01h 47m 55s
True Declination
0° 00' 00"
Sunlit
Object was in full shadow at epoch
Visualization orbit readout
Latitude
Unknown
Longitude
Unknown
Altitude
Unknown
Speed
Unknown
Apparent Right ascension
Unknown
Apparent Declination
Unknown
Sunlit
N/A
Visualization observer readout
Local Sidereal Time
12:18:18
Azimuth
Unknown
Elevation
Unknown
Doppler factor
Unknown
Orbital elements
Apogee altitude
744.595 km
Perigee altitude
719.667 km
Semi-major axis
7,110.268 km
Eccentricity
0.00175
Inclination
74.0308°
RAAN
26.9816°
Arg. of periapsis
71.4996°
True anomaly
288.61631°
Mean anomaly
288.8066°
Eccentric anomaly
288.71147°
Mean motion
3.62005 °/min
Orbital period
99.45 mins
BSTAR
0.00021748
Loading maneuver chart data...
Computing Atmospheric mass density...

Documentation

Showing up to 5 results
|